Retour au catalogue

MKA-FKI 1

ActifScienceSSO
NORAD 38711·PAYLOAD·🇷🇺 Russia

Lancé Jul 22, 2012 depuis Baikonur Cosmodrome

Loading…

Prochains Passages (prochaines 24 heures)

TLE

FraisSource: Space-Track

Époque: Sep 14, 2026, 06:18 UTC

1 38711U 12039E   26257.26277464  .00000106  00000-0  64667-4 0  9995
2 38711  98.9812  16.3590 0010407 271.4913  88.5074 14.25452586735539

Suivez MKA-FKI 1 en temps réel avec AllMySat

Download on the App Store